Regional Weather Roundup
Issued by NWS

Home | Current Version | Previous Version | Graphics & Text | Print | Product List | Glossary Off
Versions: 1 2 3 4 5 6 7 8 9 10 11 12 13 14 15 16 17 18 19 20 21 22 23 24 25 26 27 28 29 30 31 32 33 34 35 36 37 38 39 40 41 42 43 44 45 46 47 48 49 50

000
ASUS43 KDTX 281710
RWRMI
MICHIGAN HOURLY REGIONAL WEATHER ROUNDUP
NATIONAL WEATHER SERVICE DETROIT/PONTIAC MI
100 PM EDT FRI APR 28 2017

NOTE: "FAIR" INDICATES FEW OR NO CLOUDS BELOW 12,000 FEET WITH NO
SIGNIFICANT WEATHER AND/OR OBSTRUCTION TO VISIBILITY.

MIZ047>049-052>055-059>063-066>070-074>076-081>083-281800-
SOUTHEAST LOWER MICHIGAN

CITY           SKY/WX    TMP DP  RH WIND       PRES   REMARKS
ADRIAN         MOSUNNY   58  42  55 SW13      30.00S
ALMA           MOSUNNY   56  41  56 SW13G21   29.95F
ANN ARBOR      MOSUNNY   60  43  53 S13       29.97F
BAD AXE        MOSUNNY   57  39  52 SW15G24   29.95S
CARO           MOSUNNY   59  42  53 SW12G22   29.93F
DETROIT CITY   MOSUNNY   59  44  57 S13       29.98F
DETROIT        CLOUDY    60  41  49 S14G20    29.99F
FLINT          SUNNY     59  42  53 W10G21    29.94F
GROSSE ILE     MOSUNNY   56  45  66 S9        29.99F
HILLSDALE      PTSUNNY   55  41  58 S10G17    29.99R
HOWELL         MOSUNNY   60  39  46 SW8G17    29.96S

CITY           SKY/WX    TMP DP  RH WIND       PRES   REMARKS
JACKSON        PTSUNNY   60  43  53 SW6       29.96S
LAMBERTVILLE   MOSUNNY   58  42  54 SW8       30.00R
LANSING        MOSUNNY   61  42  49 SW12      29.95F
LAPEER         FAIR      61  39  44 SW9G22    29.95F
MASON          PTSUNNY   60  44  54 SW6       29.96S
MONROE         PTSUNNY   60  42  51 SW5       29.98F
MT. CLEMENS    PTSUNNY   59  46  61 S17       29.96F
PONTIAC        PTSUNNY   59  42  53 S13G21    29.94F
PORT HOPE        N/A     57  39  51 SW10G23   29.92F
PORT HURON     SUNNY     57  39  51 S13G21    29.97F
TRI CITIES     MOSUNNY   56  40  55 SW18G29   29.94F
MIDLAND        FAIR      57  37  47 SW14G24   29.92F
TROY           CLOUDY    62  37  39 SW10      29.97F
SAGINAW HB     MOSUNNY   59  37  44 SW20      29.94F
$$
MIZ043>046-050>051-056>058-064>065-071>073-077>080-281800-
SOUTHWEST LOWER MICHIGAN

CITY           SKY/WX    TMP DP  RH WIND       PRES   REMARKS
BATTLE CREEK   CLOUDY    59  44  57 SW14G21   29.97R
BENTON HARBOR  CLOUDY    57  45  64 W7        29.96S
BIG RAPIDS     SUNNY     53  31  43 SW20G25   29.92F
COLDWATER      CLOUDY    59  42  54 S6        29.98R
FREMONT        FAIR      52  31  45 SW9G16    29.94F
HOLLAND        MOSUNNY   56  45  66 W15       29.97R
GRAND RAPIDS   CLOUDY    57  45  64 SW13      29.95F
IONIA          FAIR      57  43  59 W13       29.94F
KALAMAZOO      CLOUDY    60  42  51 SW14      29.97R
LUDINGTON      SUNNY     43  34  70 SW7       29.94F
MARSHALL       CLOUDY    61  44  53 S12       29.95F
MOUNT PLEASANT MOSUNNY   56  38  51 SW14G22   29.93S
MUSKEGON       PTSUNNY   50  35  56 VRB7      29.96F
SOUTH HAVEN    CLOUDY    55  44  66 W7        29.97S
$$
MIZ016>042-281800-
NORTHERN LOWER MICHIGAN

CITY           SKY/WX    TMP DP  RH WIND       PRES   REMARKS
ALPENA         PTSUNNY   50  34  54 SW12G23   29.90R
BEAVER ISLAND  CLOUDY    38  28  68 SW17G23   29.91R WCI  28
BELLAIRE       CLOUDY    41  32  69 W8        29.93S
CADILLAC       SUNNY     51  33  50 SW16      29.90R
CHARLEVOIX     CLOUDY    38  32  77 W13G20    29.95S WCI  31
FRANKFORT      CLOUDY    41  32  70 SW10      29.95R
GAYLORD        CLOUDY    43  31  62 SW18      29.89R
GRAYLING       SUNNY     49  34  56 W10G16    29.90S
HARBOR SPRINGS CLOUDY    37  30  78 W13G23    29.92R WCI  28
HOUGHTON LAKE  SUNNY     52  33  48 SW14      29.91S
MANISTEE       CLOUDY    45  34  65 W12G20    29.94R
OSCODA         SUNNY     60  32  35 SW16G25   29.88F
PELLSTON       CLOUDY    38  28  67 W15G28    29.91R WCI  29
ROGERS CITY    CLOUDY    47  33  57 W16       29.91R
TRAVERSE CITY  PTSUNNY   45  32  60 SW9       29.92R
$$
MIZ007>008-015-281800-
EASTERN UPPER MICHIGAN

CITY           SKY/WX    TMP DP  RH WIND       PRES   REMARKS
KINROSS        CLOUDY    38  25  59 W17G24    29.87R WCI  28
MACKINAC ISLAN CLOUDY    36  31  80 SW18G29   29.90R WCI  26
NEWBERRY       CLOUDY    36  27  67 SW15G24   29.85R WCI  27
S. S. MARIE    CLOUDY    41  26  55 SW15G21   29.85R
MUNISING         N/A     39  28  64 VRB7      29.84R WCI  34
$$
MIZ004>006-011>014-085-281800-
CENTRAL UPPER MICHIGAN

CITY           SKY/WX    TMP DP  RH WIND       PRES   REMARKS
MANISTIQUE     CLOUDY    37  27  65 SW8G17    29.87S WCI  31
ESCANABA       CLOUDY    38  27  64 SW14      29.89R WCI  30
MENOMINEE      CLOUDY    41  26  55 W9        29.91F
SAWYER-GWINN   CLOUDY    34  27  75 SW12      29.84R WCI  25
$$
MIZ001>003-009>011-084-281800-
WESTERN UPPER MICHIGAN

CITY           SKY/WX    TMP DP  RH WIND       PRES   REMARKS
IRON MOUNTAIN  CLOUDY    37  24  59 W9G20     29.86R WCI  30
HOUGHTON       CLOUDY    34  20  56 W22G35    29.79R WCI  22
COPPER HARBOR    N/A     34  26  72 VRB7G21   29.79R WCI  28
IRONWOOD       CLOUDY    33  26  75 W10       29.88R WCI  25
$$

ABBREVIATIONS USED IN REMARKS
   TC - TEMPERATURE IN CELSIUS
  WCI - WIND CHILL INDEX
   HX - HEAT INDEX
  VSB - VISIBILITY





USA.gov is the U.S. government's official web portal to all federal, state and local government web resources and services.